TimeAKDT,TemperatureF,Dew PointF,Humidity,Sea Level PressureIn,VisibilityMPH,Wind Direction,Wind SpeedMPH,Gust SpeedMPH,PrecipitationIn,Events,Conditions,WindDirDegrees,DateUTC
12:16 AM,26.6,6.8,43,29.63,10.0,ENE,11.5,21.9,N/A,,Clear,60,2012-11-01 08:16:00
12:36 AM,26.6,6.8,43,29.64,10.0,NE,12.7,18.4,N/A,,Clear,50,2012-11-01 08:36:00
1:16 AM,24.8,6.8,46,29.66,10.0,NE,9.2,19.6,N/A,,Clear,50,2012-11-01 09:16:00
1:36 AM,24.8,6.8,46,29.66,10.0,ENE,10.4,16.1,N/A,,Clear,60,2012-11-01 09:36:00
1:56 AM,24.8,6.8,46,29.67,10.0,ENE,10.4,-,N/A,,Scattered Clouds,60,2012-11-01 09:56:00
2:16 AM,24.8,6.8,46,29.68,10.0,NE,11.5,17.3,N/A,,Overcast,50,2012-11-01 10:16:00
2:36 AM,24.8,6.8,46,29.68,10.0,NE,11.5,-,N/A,,Overcast,50,2012-11-01 10:36:00
2:56 AM,24.8,6.8,46,29.68,10.0,NE,11.5,17.3,N/A,,Mostly Cloudy,40,2012-11-01 10:56:00
3:16 AM,24.8,6.8,46,29.69,10.0,NE,11.5,-,N/A,,Partly Cloudy,50,2012-11-01 11:16:00
3:36 AM,24.8,6.8,46,29.69,10.0,ENE,9.2,-,N/A,,Clear,70,2012-11-01 11:36:00
3:56 AM,24.8,6.8,46,29.70,10.0,ENE,9.2,-,N/A,,Clear,70,2012-11-01 11:56:00
4:36 AM,24.8,6.8,46,29.71,10.0,ENE,8.1,-,N/A,,Clear,60,2012-11-01 12:36:00
4:56 AM,23.0,6.8,50,29.71,10.0,ENE,9.2,-,N/A,,Scattered Clouds,60,2012-11-01 12:56:00
5:16 AM,23.0,6.8,50,29.71,10.0,ENE,9.2,-,N/A,,Overcast,60,2012-11-01 13:16:00
5:36 AM,23.0,6.8,50,29.72,10.0,ENE,10.4,-,N/A,,Mostly Cloudy,60,2012-11-01 13:36:00
5:56 AM,23.0,6.8,50,29.73,10.0,East,8.1,-,N/A,,Mostly Cloudy,80,2012-11-01 13:56:00
6:16 AM,23.0,6.8,50,29.73,10.0,ENE,9.2,-,N/A,,Partly Cloudy,60,2012-11-01 14:16:00
6:36 AM,23.0,6.8,50,29.73,10.0,East,8.1,-,N/A,,Clear,80,2012-11-01 14:36:00
6:56 AM,21.2,6.8,54,29.74,10.0,East,6.9,-,N/A,,Clear,90,2012-11-01 14:56:00
7:16 AM,23.0,6.8,50,29.75,10.0,East,6.9,-,N/A,,Clear,90,2012-11-01 15:16:00
7:36 AM,21.2,6.8,54,29.75,10.0,East,5.8,-,N/A,,Clear,80,2012-11-01 15:36:00
7:56 AM,21.2,6.8,54,29.75,10.0,East,5.8,-,N/A,,Clear,90,2012-11-01 15:56:00
8:16 AM,21.2,6.8,54,29.76,10.0,East,5.8,-,N/A,,Clear,100,2012-11-01 16:16:00
8:36 AM,19.4,6.8,58,29.76,10.0,ESE,5.8,-,N/A,,Scattered Clouds,110,2012-11-01 16:36:00
9:16 AM,23.0,8.6,54,29.77,10.0,ENE,8.1,-,N/A,,Overcast,60,2012-11-01 17:16:00
9:36 AM,23.0,6.8,50,29.78,10.0,ENE,9.2,-,N/A,,Mostly Cloudy,70,2012-11-01 17:36:00
9:56 AM,23.0,6.8,50,29.79,10.0,ENE,10.4,-,N/A,,Scattered Clouds,60,2012-11-01 17:56:00
10:16 AM,23.0,6.8,50,29.80,10.0,ENE,8.1,-,N/A,,Clear,60,2012-11-01 18:16:00
10:36 AM,24.8,8.6,50,29.80,10.0,NE,10.4,-,N/A,,Clear,50,2012-11-01 18:36:00
10:56 AM,24.8,6.8,46,29.80,10.0,NE,8.1,17.3,N/A,,Clear,50,2012-11-01 18:56:00
11:16 AM,24.8,8.6,50,29.80,10.0,NE,11.5,18.4,N/A,,Scattered Clouds,50,2012-11-01 19:16:00
11:36 AM,24.8,8.6,50,29.80,10.0,ENE,11.5,16.1,N/A,,Mostly Cloudy,60,2012-11-01 19:36:00
11:56 AM,24.8,8.6,50,29.81,10.0,NE,9.2,-,N/A,,Partly Cloudy,50,2012-11-01 19:56:00
12:16 PM,26.6,6.8,43,29.82,10.0,NE,15.0,18.4,N/A,,Partly Cloudy,40,2012-11-01 20:16:00
12:36 PM,26.6,6.8,43,29.82,10.0,NE,11.5,20.7,N/A,,Mostly Cloudy,50,2012-11-01 20:36:00
12:56 PM,26.6,8.6,47,29.81,10.0,NE,8.1,19.6,N/A,,Scattered Clouds,50,2012-11-01 20:56:00
1:16 PM,26.6,8.6,47,29.81,10.0,NE,15.0,20.7,N/A,,Clear,50,2012-11-01 21:16:00
1:36 PM,26.6,6.8,43,29.81,10.0,NE,13.8,25.3,N/A,,Clear,40,2012-11-01 21:36:00
1:56 PM,28.4,6.8,40,29.81,10.0,NE,13.8,20.7,N/A,,Clear,50,2012-11-01 21:56:00
2:16 PM,28.4,8.6,43,29.80,10.0,ENE,10.4,19.6,N/A,,Clear,60,2012-11-01 22:16:00
2:36 PM,28.4,8.6,43,29.79,10.0,ENE,10.4,-,N/A,,Clear,60,2012-11-01 22:36:00
2:56 PM,28.4,6.8,40,29.79,10.0,NE,15.0,23.0,N/A,,Clear,50,2012-11-01 22:56:00
3:16 PM,28.4,8.6,43,29.79,10.0,ENE,17.3,23.0,N/A,,Clear,60,2012-11-01 23:16:00
3:36 PM,28.4,8.6,43,29.79,10.0,ENE,12.7,-,N/A,,Clear,60,2012-11-01 23:36:00
3:56 PM,28.4,6.8,40,29.78,10.0,NE,9.2,-,N/A,,Clear,50,2012-11-01 23:56:00
4:16 PM,28.4,6.8,40,29.79,10.0,NE,11.5,20.7,N/A,,Clear,50,2012-11-02 00:16:00
4:36 PM,28.4,6.8,40,29.78,10.0,NE,12.7,21.9,N/A,,Clear,40,2012-11-02 00:36:00
4:56 PM,28.4,8.6,43,29.78,10.0,NE,12.7,20.7,N/A,,Clear,50,2012-11-02 00:56:00
5:16 PM,28.4,6.8,40,29.77,10.0,NE,6.9,-,N/A,,Clear,50,2012-11-02 01:16:00
5:36 PM,28.4,6.8,40,29.77,10.0,NE,11.5,16.1,N/A,,Clear,40,2012-11-02 01:36:00
5:56 PM,26.6,6.8,43,29.76,10.0,ENE,9.2,18.4,N/A,,Clear,60,2012-11-02 01:56:00
6:16 PM,26.6,6.8,43,29.76,10.0,NE,10.4,-,N/A,,Clear,50,2012-11-02 02:16:00
6:36 PM,26.6,8.6,47,29.75,10.0,NE,10.4,16.1,N/A,,Clear,50,2012-11-02 02:36:00
6:56 PM,26.6,8.6,47,29.74,10.0,NE,9.2,17.3,N/A,,Clear,50,2012-11-02 02:56:00
7:16 PM,26.6,8.6,47,29.74,10.0,ENE,9.2,-,N/A,,Clear,60,2012-11-02 03:16:00
7:36 PM,26.6,8.6,47,29.74,10.0,NE,8.1,-,N/A,,Clear,50,2012-11-02 03:36:00
7:56 PM,26.6,8.6,47,29.73,10.0,ENE,11.5,-,N/A,,Clear,70,2012-11-02 03:56:00
8:16 PM,26.6,8.6,47,29.73,10.0,NE,11.5,-,N/A,,Clear,50,2012-11-02 04:16:00
8:36 PM,26.6,8.6,47,29.72,10.0,ENE,9.2,17.3,N/A,,Clear,60,2012-11-02 04:36:00
8:56 PM,26.6,8.6,47,29.71,10.0,NE,13.8,18.4,N/A,,Clear,50,2012-11-02 04:56:00
9:16 PM,26.6,10.4,51,29.70,10.0,NE,10.4,17.3,N/A,,Clear,50,2012-11-02 05:16:00
9:36 PM,26.6,10.4,51,29.70,10.0,NE,11.5,16.1,N/A,,Clear,50,2012-11-02 05:36:00
9:56 PM,26.6,10.4,51,29.69,10.0,ENE,10.4,17.3,N/A,,Clear,60,2012-11-02 05:56:00
10:16 PM,26.6,10.4,51,29.69,10.0,ENE,8.1,16.1,N/A,,Partly Cloudy,70,2012-11-02 06:16:00
10:36 PM,26.6,10.4,51,29.68,10.0,ENE,11.5,-,N/A,,Mostly Cloudy,70,2012-11-02 06:36:00
10:56 PM,26.6,10.4,51,29.67,10.0,ENE,11.5,17.3,N/A,,Overcast,60,2012-11-02 06:56:00
11:16 PM,26.6,10.4,51,29.66,10.0,ENE,9.2,16.1,N/A,,Overcast,70,2012-11-02 07:16:00
11:36 PM,26.6,10.4,51,29.65,10.0,ENE,9.2,-,N/A,,Overcast,60,2012-11-02 07:36:00
11:56 PM,26.6,10.4,51,29.64,10.0,ENE,9.2,-,N/A,,Overcast,60,2012-11-02 07:56:00